Location: ?????
(44.4284°N, 135.2222°E)
Time: 13:42:12
(UTC+00:00)

Cosmos 1980 - Pass Details

Date: 19 May 2025
Orbit: 837 x 846 km, 71.0° (Epoch: 20 June)

Event Time Altitude Azimuth Distance (km) Brightness Sun altitude
Rises 18:03:53 0° 326° (NW) 3,415 7.0 -12.6°
Reaches altitude 10° 18:06:33 10° 317° (NW) 2,474 6.2 -12.3°
Maximum altitude 18:11:33 33° 255° (WSW) 1,381 4.4 -11.6°
Drops below altitude 10° 18:16:32 10° 193° (SSW) 2,454 5.6 -11.0°
Enters shadow 18:17:23 - 190° (S) 2,742 5.9 -10.9°
